Regional Weather Roundup
Issued by NWS New Orleans/Baton Rouge, LA

Home | Current Version | Previous Version | Graphics & Text | Print | Product List | Glossary On
Versions: 1 2 3 4 5 6 7 8 9 10 11 12 13 14 15 16 17 18 19 20 21 22 23 24 25 26 27 28 29 30 31 32 33 34 35 36 37 38 39 40 41 42 43 44 45 46 47 48 49 50
478
ASUS44 KLIX 241110
RWRLIX
NEW ORLEANS REGIONAL WEATHER ROUNDUP
NATIONAL WEATHER SERVICE NEW ORLEANS LA
500 AM CST SAT JAN 24 2015

NOTE: "FAIR" INDICATES FEW OR NO CLOUDS BELOW 12,000 FEET WITH NO
      SIGNIFICANT WEATHER AND/OR OBSTRUCTIONS TO VISIBILITY.
      SKY/WX - SKY CONDITION AND SIGNIFICANT WEATHER.
      TMP - AIR TEMPERATURE.     DP    - DEWPOINT TEMPERATURE.
      RH  - RELATIVE HUMIDITY.   PRES  - PRESSURE.
      HI  - HEAT INDEX.          WCI   - WIND CHILL INDEX.

*  THESE STATIONS ARE NOT NWS OR FAA STATIONS AND ARE NOT UNDER
   NWS QUALITY CONTROL.

LAZ038-040-048-061>063-065>067-069-241200-
SOUTHEAST LOUISIANA

CITY           SKY/WX    TMP DP  RH WIND       PRES   REMARKS
N.O. AUDUBON     N/A     41  38  89 MISG        N/A
N.O. INTL ARPT CLEAR     39  34  82 W10       30.14R WCI  32
N.O. LAKEFRONT CLEAR     45  37  73 NW21      30.13R
N.O. DOWNTOWN*   N/A     41  34  75 W3        30.14R
SLIDELL        CLEAR     37  34  89 NW3       30.10R
BATON ROUGE    CLEAR     33  32  96 W6        30.14R WCI  28
BOOTHVILLE     CLEAR     44  36  73 NW15G24   30.10R
BELLE CHASSE   PTCLDY    41  34  76 W6        30.13R
BOGALUSA*        N/A     37  34  90 W5        30.11S WCI  33
GALLIANO*      SUNNY     40  37  87 MISG      30.15R
NEW ROADS*       N/A     35  33  95 W7        30.15R WCI  29
GONZALES*        N/A     37  37 100 CALM      30.14R
HAMMOND*       CLOUDY    37  34  87 NW7       30.13S WCI  32
HOUMA*         CLEAR     37  35  91 W5        30.16R WCI  34
PORT FOURCHON* SUNNY     43  37  81 NW12G20   30.17R

$$

MSZ070-080>082-241200-
SOUTHERN MISSISSIPPI

CITY           SKY/WX    TMP DP  RH WIND       PRES   REMARKS
MCCOMB         CLOUDY    36  34  92 W8        30.08S WCI  30
GULFPORT       CLEAR     38  34  85 NW9       30.07R WCI  31
BILOXI         CLEAR     39  36  90 NW12      30.06R WCI  32
PASCAGOULA     CLEAR     39  35  86 NW9       30.05R WCI  33

$$

COASTAL OBSERVATIONS
LAKE AND NEARSHORE STATIONS

STATION/POSITION TIME  TEMP    WIND        PRES    WAVE
                       AIR SEA DIR/SP/G            HT/PER
                 (UTC) (F)     (DEG/KT/KT) (MB)    (FT/S)
PASCAGOULA       1100          330/  9/ 15   N/A
WAVELAND YACHT   1100          310/ 10/ 13   N/A
GRAND ISLE       1100      55  320/ 16/ 19   N/A
SOUTHWEST PASS   1100      45  350/ 22/ 27   N/A
NEW CANAL        1100      51  290/  6/ 12   N/A
SHELL BEACH      1100      53  320/ 19/ 22   N/A

OFFSHORE STATIONS

STATION/POSITION TIME  TEMP    WIND        PRES    WAVE
                       AIR SEA DIR/SP/G            HT/PER
                 (UTC) (F)     (DEG/KT/KT) (MB)    (FT/S)
64 S DAUPHIN ISL 1050   50 71  320/ 25/ 33 1017.4   10/ 7

$$




USA.gov is the U.S. government's official web portal to all federal, state and local government web resources and services.